Location: Quaker Farms
(41.4276°N, 73.1557°W)
Time: 01:26:08
(UTC+00:00)

Altair - Pass Details

Date: 15 June 2021
Orbit: 1501 x 1682 km, 47.2° (Epoch: 23 July)

Event Time Altitude Azimuth Distance (km) Brightness Sun altitude
Rises 21:19:21 0° 268° (W) 4,744 11.2 32.4°
Reaches altitude 10° 21:22:27 10° 272° (W) 3,785 11.1 31.9°
Maximum altitude 21:32:03 64° 353° (N) 1,773 8.4 30.1°
Drops below altitude 10° 21:42:02 10° 75° (ENE) 3,919 9.2 28.2°
Sets 21:45:18 0° 78° (ENE) 4,921 9.6 27.6°
